Location: Branche des Alpilles
(43.6087°N, 4.6976°E)
Time: 05:51:51
(UTC+00:00)

Envisat - Pass Details

Date: 04 October 2021
Orbit: 764 x 766 km, 98.2° (Epoch: 23 October)

Event Time Altitude Azimuth Distance (km) Brightness Sun altitude
Rises 05:01:56 0° 11° (NNE) 3,241 6.4 -8.1°
Reaches altitude 10° 05:04:15 10° 11° (N) 2,310 5.7 -7.7°
Maximum altitude 05:09:20 80° 286° (WNW) 782 3.0 -6.8°
Drops below altitude 10° 05:14:23 10° 199° (SSW) 2,293 5.3 -5.9°
Sets 05:16:41 0° 198° (SSW) 3,215 6.0 -5.5°
